Location: Azul
(36.7830°S, 59.8500°W)
Time: 10:19:03
(UTC-03:00)

UKube-1 - Pass Details

Date: 27 October 2021
Orbit: 611 x 617 km, 98.4° (Epoch: 07 December)

Event Time Altitude Azimuth Distance (km) Brightness Sun altitude
Exits shadow 22:23:03 - 294° (WNW) 2,094 ? -30.2°
Reaches altitude 10° 22:24:00 10° 283° (WNW) 1,990 ? -30.3°
Maximum altitude 22:24:49 10° 271° (W) 1,961 ? -30.4°
Drops below altitude 10° 22:25:39 10° 260° (W) 1,995 ? -30.5°
Sets 22:29:55 0° 220° (SW) 2,914 ? -31.0°
